GLOBALSTAR M042 [-]

Last updated on July 6, 2021, 3:36 p.m. UTC

1 25679U 99019D   21186.90452449 -.00000051  00000-0  38696-3 0  9994
2 25679  51.9991 162.2798 0002581 220.1762 174.7495 12.22023618  8929
UTC
Height (km)
Latitude
Longitude
Inclination
Orbital Period
UTC large
Height (km)
Speed (km/s)
/
Latitude / Longitude
Inclination (degrees)
Orbital Period (minutes)
Azimuth
Elevation
Range (km)
Doppler Factor
iOS Compass Heading
iOS Angle